Weather History for Nebraska City, NE

Change the Weather History Date:

Tuesday, August 20, 2013

  Actual Average (KSDA) Record (KSDA)
Temperature  
Mean Temperature 78 °F -  
Max Temperature 88 °F 85 °F 98 °F (1998)
Min Temperature 67 °F 62 °F 38 °F (1950)
Cooling Degree Days 12    
Growing Degree Days 28 (Base 50)    
Moisture  
Dew Point 68 °F    
Average Humidity 74    
Maximum Humidity 100    
Minimum Humidity 47    
Precipitation  
Precipitation 0.00 in - - ()
Sea Level Pressure  
Sea Level Pressure 29.98 in    
Wind  
Wind Speed 11 mph (SSW)    
Max Wind Speed 18 mph    
Max Gust Speed 24 mph    
Visibility 10 miles    
Events      
Averages and records for this station are not official NWS values.
T = Trace of Precipitation, MM = Missing Value Source: NWS Daily Summary

Daily Weather History Graph

Daily Weather History Graph

Search for Another Location

Airport:

Trip Planner

Search our weather history database for the weather conditions in past years. The results will help you decide how hot, cold, wet, or windy it might be!

Date:

Astronomy

Aug. 20, 2013 Rise Set
Actual Time 6:39 AM CDT 8:13 PM CDT
Civil Twilight 6:10 AM CDT 8:42 PM CDT
Nautical Twilight 5:35 AM CDT 9:17 PM CDT
Astronomical Twilight 4:58 AM CDT 9:54 PM CDT
Moon 7:45 PM CDT (8/20) 6:10 AM CDT (8/20)
Length of Visible Light 14h 32m
Length of Day
13h 34m
Full, 100% of the Moon is Illuminated
Aug 20
Full
Aug 20
Full
Aug 28
Last Quarter
Sep 5
New
Sep 12
First Quarter

Hourly Weather History & Observations

Time (CDT) Temp. Heat Index Dew Point Humidity Pressure Visibility Wind Dir Wind Speed Gust Speed Precip Events Conditions
12:15 AM 71.8 °F - 66.4 °F 83% 29.99 in 10.0 mi South 11.5 mph - N/A   Clear
12:35 AM 71.6 °F - 66.4 °F 84% 29.99 in 10.0 mi South 9.2 mph - N/A   Clear
12:55 AM 71.1 °F - 66.4 °F 85% 29.99 in 10.0 mi South 10.4 mph - N/A   Clear
1:15 AM 71.1 °F - 66.4 °F 85% 29.99 in 10.0 mi South 9.2 mph - N/A   Clear
1:35 AM 71.1 °F - 66.4 °F 85% 29.99 in 10.0 mi South 11.5 mph - N/A   Clear
1:55 AM 71.1 °F - 66.2 °F 85% 29.99 in 10.0 mi SSW 12.7 mph - N/A   Clear
2:15 AM 70.7 °F - 66.4 °F 86% 29.98 in 10.0 mi SSW 11.5 mph - N/A   Clear
2:35 AM 70.7 °F - 66.4 °F 86% 29.98 in 10.0 mi SSW 12.7 mph - N/A   Clear
2:55 AM 70.7 °F - 66.4 °F 86% 29.98 in 10.0 mi SSW 11.5 mph - N/A   Clear
3:15 AM 70.7 °F - 66.4 °F 86% 29.98 in 10.0 mi SSW 12.7 mph - N/A   Clear
3:35 AM 71.1 °F - 66.6 °F 86% 29.98 in 10.0 mi SSW 11.5 mph - N/A   Clear
3:55 AM 70.7 °F - 66.6 °F 87% 29.98 in 10.0 mi SSW 10.4 mph - N/A   Clear
4:15 AM 70.2 °F - 66.4 °F 88% 29.98 in 10.0 mi SSW 9.2 mph - N/A   Clear
4:35 AM 69.8 °F - 66.9 °F 91% 29.98 in 10.0 mi SSW 9.2 mph - N/A   Clear
4:55 AM 69.8 °F - 67.3 °F 92% 29.98 in 10.0 mi SSW 9.2 mph - N/A   Clear
5:15 AM 69.8 °F - 68.0 °F 94% 29.98 in 10.0 mi SSW 9.2 mph - N/A   Clear
5:35 AM 69.3 °F - 68.0 °F 96% 29.98 in 10.0 mi SSW 8.1 mph - N/A   Clear
5:55 AM 68.9 °F - 68.2 °F 98% 29.99 in 10.0 mi South 8.1 mph - N/A   Clear
6:15 AM 68.0 °F - 68.0 °F 100% 29.99 in 7.0 mi South 8.1 mph - N/A   Clear
6:35 AM 68.0 °F - 68.0 °F 100% 29.99 in 7.0 mi South 8.1 mph - N/A   Clear
6:55 AM 67.6 °F - 67.6 °F 100% 29.99 in 7.0 mi South 8.1 mph - N/A   Clear
7:15 AM 68.2 °F - 68.2 °F 100% 30.00 in 7.0 mi South 8.1 mph - N/A   Clear
7:35 AM 68.9 °F - 68.5 °F 99% 30.00 in 7.0 mi South 9.2 mph - N/A   Clear
7:55 AM 69.3 °F - 68.9 °F 99% 30.00 in 10.0 mi SSW 11.5 mph - N/A   Clear
8:15 AM 69.8 °F - 68.9 °F 97% 30.01 in 10.0 mi SSW 11.5 mph - N/A   Clear
8:35 AM 70.3 °F - 68.9 °F 95% 30.01 in 10.0 mi South 11.5 mph - N/A   Clear
8:55 AM 72.0 °F - 69.1 °F 91% 30.01 in 10.0 mi SSW 11.5 mph - N/A   Clear
9:15 AM 74.5 °F - 67.5 °F 79% 30.01 in 10.0 mi SSW 11.5 mph - N/A   Clear
9:35 AM 75.9 °F - 67.5 °F 75% 30.01 in 10.0 mi SSW 12.7 mph 18.4 mph N/A   Clear
9:55 AM 77.5 °F - 67.3 °F 71% 30.02 in 10.0 mi SSW 13.8 mph - N/A   Clear
10:15 AM 78.4 °F - 66.2 °F 66% 30.02 in 10.0 mi SSW 15.0 mph 21.9 mph N/A   Clear
10:35 AM 79.5 °F - 66.7 °F 65% 30.01 in 10.0 mi SW 15.0 mph - N/A   Clear
10:55 AM 80.6 °F 82.9 °F 66.9 °F 63% 30.01 in 10.0 mi SSW 17.3 mph 21.9 mph N/A   Clear
11:15 AM 82.0 °F 84.5 °F 66.7 °F 60% 30.01 in 10.0 mi SSW 18.4 mph 21.9 mph N/A   Clear
11:35 AM 83.1 °F 85.7 °F 67.1 °F 58% 30.01 in 10.0 mi SSW 12.7 mph 24.2 mph N/A   Clear
11:55 AM 83.7 °F 86.5 °F 67.3 °F 58% 30.01 in 10.0 mi SSW 13.8 mph 23.0 mph N/A   Clear
12:15 PM 84.2 °F 86.8 °F 66.9 °F 56% 30.01 in 10.0 mi SSW 16.1 mph 19.6 mph N/A   Clear
12:35 PM 84.4 °F 86.6 °F 65.8 °F 54% 30.00 in 10.0 mi SSW 17.3 mph - N/A   Clear
12:55 PM 85.3 °F 87.6 °F 66.2 °F 53% 30.00 in 10.0 mi SSW 16.1 mph 20.7 mph N/A   Clear
1:15 PM 86.4 °F 89.0 °F 66.9 °F 52% 29.99 in 10.0 mi SSW 15.0 mph - N/A   Clear
1:35 PM 86.5 °F 89.3 °F 66.9 °F 52% 29.99 in 10.0 mi SSW 13.8 mph - N/A   Clear
1:55 PM 87.1 °F 90.2 °F 67.3 °F 52% 29.98 in 10.0 mi SSW 13.8 mph 18.4 mph N/A   Clear
2:15 PM 87.4 °F 90.5 °F 67.1 °F 51% 29.98 in 10.0 mi South 11.5 mph - N/A   Clear
2:35 PM 87.8 °F 90.4 °F 66.7 °F 49% 29.98 in 10.0 mi SSW 13.8 mph 20.7 mph N/A   Clear
2:55 PM 88.3 °F 91.2 °F 67.1 °F 49% 29.97 in 10.0 mi SSW 13.8 mph 18.4 mph N/A   Clear
3:15 PM 88.3 °F 91.2 °F 66.7 °F 49% 29.97 in 10.0 mi South 16.1 mph 19.6 mph N/A   Clear
3:35 PM 88.2 °F 90.9 °F 66.7 °F 49% 29.96 in 10.0 mi South 12.7 mph - N/A   Clear
3:55 PM 88.7 °F 91.1 °F 66.4 °F 47% 29.96 in 10.0 mi SSW 16.1 mph 19.6 mph N/A   Clear
4:15 PM 88.5 °F 91.2 °F 66.6 °F 48% 29.95 in 10.0 mi South 13.8 mph - N/A   Clear
4:35 PM 88.5 °F 91.6 °F 66.9 °F 49% 29.95 in 10.0 mi South 15.0 mph 18.4 mph N/A   Clear
4:55 PM 88.3 °F 91.2 °F 66.9 °F 49% 29.95 in 10.0 mi SSW 13.8 mph 21.9 mph N/A   Clear
5:15 PM 88.2 °F 91.7 °F 67.8 °F 51% 29.95 in 10.0 mi South 13.8 mph 18.4 mph N/A   Clear
5:35 PM 87.8 °F 90.7 °F 67.1 °F 50% 29.95 in 10.0 mi SSW 13.8 mph 18.4 mph N/A   Clear
5:55 PM 87.3 °F 90.5 °F 67.6 °F 52% 29.95 in 10.0 mi South 12.7 mph 16.1 mph N/A   Clear
6:15 PM 86.9 °F 90.6 °F 68.4 °F 54% 29.95 in 10.0 mi South 12.7 mph - N/A   Clear
6:35 PM 86.0 °F 89.4 °F 68.2 °F 55% 29.95 in 10.0 mi South 10.4 mph - N/A   Clear
6:55 PM 85.1 °F 88.5 °F 68.5 °F 57% 29.95 in 10.0 mi South 10.4 mph - N/A   Clear
7:15 PM 83.7 °F 87.2 °F 69.1 °F 61% 29.95 in 10.0 mi South 8.1 mph - N/A   Clear
7:35 PM 81.9 °F 85.4 °F 69.6 °F 66% 29.95 in 10.0 mi South 6.9 mph - N/A   Clear
7:55 PM 80.1 °F 83.0 °F 69.4 °F 70% 29.95 in 10.0 mi South 6.9 mph - N/A   Clear
8:15 PM 78.8 °F - 69.3 °F 72% 29.95 in 10.0 mi South 6.9 mph - N/A   Clear
8:35 PM 77.0 °F - 69.4 °F 77% 29.96 in 10.0 mi South 6.9 mph - N/A   Clear
8:55 PM 76.1 °F - 70.0 °F 81% 29.96 in 10.0 mi South 8.1 mph - N/A   Clear
9:15 PM 76.6 °F - 70.7 °F 82% 29.96 in 10.0 mi South 9.2 mph - N/A   Clear
9:35 PM 76.3 °F - 70.5 °F 82% 29.97 in 10.0 mi South 9.2 mph - N/A   Clear
9:55 PM 76.3 °F - 70.3 °F 82% 29.98 in 10.0 mi South 10.4 mph - N/A   Clear
10:15 PM 76.1 °F - 70.0 °F 81% 29.98 in 10.0 mi South 10.4 mph - N/A   Clear
10:35 PM 75.9 °F - 69.8 °F 81% 29.98 in 10.0 mi South 11.5 mph - N/A   Clear
10:55 PM 75.4 °F - 69.4 °F 82% 29.99 in 10.0 mi South 11.5 mph - N/A   Clear
11:15 PM 75.0 °F - 68.9 °F 81% 29.99 in 10.0 mi South 11.5 mph - N/A   Clear
11:35 PM 74.7 °F - 68.5 °F 81% 29.99 in 10.0 mi South 11.5 mph - N/A   Clear
11:55 PM 74.3 °F - 68.2 °F 81% 29.99 in 10.0 mi South 11.5 mph - N/A   Clear